Sheridan County Airport
KSHR : now visible

Airfield :











YOU CAN JOIN US ON...

 
LOGIN :

Register | Disclaimer

   EN    FR    IT 

 









Legend :    VFR   Marginal VFR   IFR   Intensive IFR   Very Intensive IFR
Visi :
Ceiling :
>= 8 km
>= 3000ft
5 to 8 km
1000 to 3000 ft
1500m to 5 km
500 to 1000 ft
800 to 1500m
200 to 500 ft
< 800m
< 200 ft
Symbols :   Thunderstorms  Fog  Heavy snow  Heavy precipitations  Wind > 20 kt






- Airport Elevation : 4021 ft
- IATA code : SHR


KSHR - Sheridan County

CURRENT METAR :
  • 222253Z AUTO 36004KT 10SM CLR 33/06 A2978 RMK AO2 SLP050 T03280056

EXPIRED METARs :
  • 222153Z AUTO VRB03KT 10SM CLR 33/06 A2980 RMK AO2 SLP052 T03330056
  • 222053Z AUTO 32008KT 10SM CLR 32/06 A2981 RMK AO2 SLP056 T03220061 56010

TAF KSHR
Valid from the 22 at 18:00 until the 23 at 18:00 UTC


221720Z 2218/2318 33012KT P6SM SKC
FM230300 VRB06KT P6SM SKC
KZLC FIR / North America



MET'MAP, your aeronautical weather chart ! - Copyright ORBIFLY December 2007 - Disclaimer

ORBIFLY MET'MAP TEAM :

Programming & Development : Alexandra Zaïnal
Concept & original design : Baudouin d'Aumeries
Assistance for programming : Marc-Olivier Méhu
Technical & hardware support : Manuel Goepfert

Contact : metmap@orbifly.com




SOURCES & CREDITS :

   NOAA       Earth
Advisory